GEFTB EGHF-EGTE

Flight info

Callsign GEFTB
Flight time N/A
Altitude 7000
Route ELDER NEDUL SAM OSNUG
Aircraft DA42/L-SBDGRY/S

Departure

Time 2026-04-20 17:45
Airport Solent Airport (EGHF)

Arrival

Time N/A
Airport Exeter International Airport (EGTE)
Time Latitude Longitude Altitude Speed Heading
2026-04-20 17:39 50.81909 -1.20123 25 ft 0 kts 224°
2026-04-20 17:43 50.81834 -1.20243 25 ft 50 kts 225°
2026-04-20 17:43 50.81551 -1.20752 175 ft 66 kts 235°
2026-04-20 17:44 50.81544 -1.20767 180 ft 65 kts 234°
2026-04-20 17:44 50.81381 -1.21155 244 ft 65 kts 228°
2026-04-20 17:44 50.81092 -1.21566 352 ft 70 kts 218°
2026-04-20 17:45 50.80860 -1.21834 610 ft 64 kts 216°
2026-04-20 17:45 50.80534 -1.22229 838 ft 74 kts 217°
2026-04-20 17:45 50.80359 -1.22441 954 ft 78 kts 221°
2026-04-20 17:45 50.80163 -1.22677 1132 ft 74 kts 210°
2026-04-20 17:46 50.80022 -1.22809 1248 ft 74 kts 211°
2026-04-20 17:46 50.79752 -1.23047 1403 ft 78 kts 208°
2026-04-20 17:46 50.79604 -1.23168 1536 ft 77 kts 213°
2026-04-20 17:46 50.79244 -1.23465 1820 ft 79 kts 220°
2026-04-20 17:47 50.78775 -1.23768 2118 ft 83 kts 207°
2026-04-20 17:47 50.78289 -1.24059 2482 ft 79 kts 206°
2026-04-20 17:47 50.77828 -1.24344 2850 ft 76 kts 206°
2026-04-20 17:47 50.77792 -1.24367 2878 ft 76 kts 206°
2026-04-20 17:48 50.77412 -1.24597 3124 ft 79 kts 206°
2026-04-20 17:48 50.76981 -1.24864 3478 ft 74 kts 218°
2026-04-20 17:48 50.76858 -1.24951 3533 ft 79 kts 210°
2026-04-20 17:49 50.76773 -1.25002 3568 ft 83 kts 210°
2026-04-20 17:49 50.76272 -1.25280 3890 ft 84 kts 210°
2026-04-20 17:49 50.75708 -1.25597 3999 ft 109 kts 208°
2026-04-20 17:49 50.75087 -1.25985 4018 ft 129 kts 209°
2026-04-20 17:50 50.74524 -1.26344 4014 ft 141 kts 209°
2026-04-20 17:50 50.74350 -1.26456 4012 ft 143 kts 208°
2026-04-20 17:51 50.73480 -1.27038 4005 ft 152 kts 209°
2026-04-20 17:51 50.72548 -1.27661 4001 ft 156 kts 209°
2026-04-20 17:51 50.71583 -1.28306 3998 ft 159 kts 208°
2026-04-20 17:52 50.70905 -1.28762 3998 ft 160 kts 209°
2026-04-20 18:01 50.70550 -1.29031 4001 ft 158 kts 217°
2026-04-20 18:02 50.70061 -1.30196 3996 ft 149 kts 267°
2026-04-20 18:02 50.70068 -1.30529 3988 ft 149 kts 279°
2026-04-20 18:02 50.70096 -1.30732 3991 ft 149 kts 286°
2026-04-20 18:02 50.81207 -1.21240 23 ft 0 kts 45°